Location: Newark
(45.2500°N, 7.5833°E)
Time: 02:44:51
(UTC+00:00)

NUDT-PHONESAT - Pass Details

Date: 01 March 2020
Orbit: 487 x 502 km, 97.4° (Epoch: 04 April)

Event Time Altitude Azimuth Distance (km) Brightness Sun altitude
Rises 18:07:24 0° 203° (SSW) 2,547 ? -9.6°
Reaches altitude 10° 18:09:59 10° 224° (SW) 1,674 ? -10.0°
Maximum altitude 18:12:28 18° 267° (W) 1,280 ? -10.5°
Drops below altitude 10° 18:14:59 10° 311° (NW) 1,690 ? -10.9°
Sets 18:17:36 0° 332° (NNW) 2,581 ? -11.4°
